Location: Festilli
(46.4000°N, 11.6667°E)
Time: 15:02:16
(UTC+00:00)

CSL-04 Rocket - Pass Details

Date: 03 March 2021
Orbit: 805 x 861 km, 98.9° (Epoch: 19 April)

Event Time Altitude Azimuth Distance (km) Brightness Sun altitude
Rises 18:21:07 0° 165° (SSE) 3,424 6.7 -14.4°
Reaches altitude 10° 18:23:29 10° 166° (SSE) 2,490 5.9 -14.8°
Maximum altitude 18:29:02 84° 256° (WSW) 868 3.8 -15.7°
Drops below altitude 10° 18:34:35 10° 344° (NNW) 2,486 6.4 -16.7°
Sets 18:36:57 0° 345° (NNW) 3,419 7.2 -17.1°
